Погода в Старокарасуке

Россия / Омская область     55°48′36″N   74°04′29″E
темп.,
°C
ветер,
м/с
пор.,
м/с
влажн.,
%
обл.,
%
осадки,
мм/ч
давл.,
гПа
погр.,
м
15 апреля, чт
чт1500:00+4з22100100 0.1 102730
03:00+5юз34100100 0.0 102551
06:00+3юз479712 0.0 102598
09:00+4зюз411100100 0.0 1024207
12:00+6з58100100 0.0 1023260
15:00+11з589234 0.0 1022358
18:00+12юз48905 0.0 1020170
21:00+8юз512927 0.0 1020192
16 апреля, пт
пт1600:00+7зюз5129446 0.0 1018189
03:00+6юз5129070 0.0 1016189
06:00+5зюз5128864 0.0 1016207
09:00+8зюз61383100 0.0 1014365
12:00+11сз7982100 0.0 1015939
15:00+5с61087100 0.1 1019801
18:00+6с6106842 0.1 10211324
21:00+3ссв511735 0.0 1023417
17 апреля, сб
сб1700:000ссв59762 0.0 1025407
03:00−2св36785 0.0 1026435
06:00−2всв23755 0.0 1026343
09:00−1з116047 0.0 1026645
12:00+3зсз454245 0.0 10241170
15:00+5зсз56445 0.0 10231547
18:00+6зсз475020 0.0 10221723
21:00+3зюз3367100 0.0 102243
18 апреля, вс
вс1800:00+3ююз4872100 0.0 1020188
03:00+3юз51374100 0.0 1018326
06:00+2юз51276100 0.0 1015382
09:00+4юз71273100 0.0 1012866
12:00+7юз71263100 0.0 10081515
15:00+7зюз71368100 1.1 10051579
18:00+4зсз91387100 1.7 10051088
21:00−3сз10147585 0.6 10091057
19 апреля, пн
пн1900:00−5сз111580100 0.7 10121324
03:00−6ссз101573100 0.1 1016977
06:00−8ссз91470100 0.1 1020814
09:00−6ссз91159100 0.0 10231044
12:00−4ссз8946100 0.0 10241473
15:00−2с7839100 0.0 10262045
18:00−2с6838100 0.0 10271909
21:00−4с585296 0.1 1029699